Regional Weather Roundup
Issued by NWS

Home | Current Version | Previous Version | Graphics & Text | Print | Product List | Glossary On
Versions: 1 2 3 4 5 6 7 8 9 10 11 12 13 14 15 16 17 18 19 20 21 22 23 24 25 26 27 28 29 30 31 32 33 34 35 36 37 38 39 40 41 42 43 44 45 46 47 48 49 50
000
ASUS45 KBOU 290507
RWRCO

WEATHER ROUNDUP FOR COLORADO
NATIONAL WEATHER SERVICE DENVER/BOULDER CO
1100 PM MDT SUN JUN 28 2015

NOTE: "FAIR" INDICATES FEW OR NO CLOUDS BELOW 12000 FEET WITH NO
SIGNIFICANT WEATHER AND/OR OBSTRUCTIONS TO VISIBILITY.

COZ001>005-013-030-031-290600-
...NORTHWEST COLORADO...

CITY           SKY/WX    TMP DP  RH WIND       PRES   REMARKS
CRAIG          CLOUDY    73  44  35 N13       30.22R
HAYDEN         CLOUDY    72  41  33 E10       30.26S
MEEKER         MOCLDY    68  46  45 NE5       30.22R
MOUNT WERNER   NOT AVBL
STEAMBOAT SPGS CLOUDY    67  44  43 SE6       30.31R
WALDEN         CLOUDY    57  48  72 N6        30.43R
$$

COZ006>008-011-290600-
...WEST CENTRAL VALLEYS...

CITY           SKY/WX    TMP DP  RH WIND       PRES   REMARKS
GRAND JUNCTION PTCLDY    75  35  23 E3        30.05R
MONTROSE       MOCLDY    79  44  28 E24G33    30.20R
EAGLE          NOT AVBL
RIFLE          MOCLDY    79  43  27 NE5       30.15R
DELTA          MOCLDY    84  42  22 CALM      30.15R
NUCLA          NOT AVBL
$$

COZ017>023-064>068-290600-
...SOUTHWEST COLORADO...

CITY           SKY/WX    TMP DP  RH WIND       PRES   REMARKS
DURANGO        MOCLDY    65  44  46 E3        30.36R
CORTEZ         CLEAR     76  42  29 SE10      30.25R
PAGOSA SPRINGS MOCLDY    64  43  45 NW3       30.44F
TELLURIDE      MOCLDY    63  44  48 SE8       30.52R
WOLF CREEK PAS NOT AVBL
$$

COZ009-010-012-014-032>034-037-058>063-290600-
...CENTRAL COLORADO...

CITY           SKY/WX    TMP DP  RH WIND       PRES   REMARKS
ASPEN          CLOUDY    65  47  52 SE18G25   30.41R
BUENA VISTA    CLOUDY    58  53  82 E5        30.49S THUNDER
COPPER MTN     MOCLDY    54  36  50 S12       30.74S
BERTHOUD PASS  CLOUDY    46  36  66 CALM      30.78S
COTTONWOOD PAS NOT AVBL
GUNNISON       CLOUDY    63  45  51 NE10      30.51R
KREMMLING      MOCLDY    61  43  51 N3        30.39R
LEADVILLE      MOCLDY    48  47  96 E5        30.60S
MONARCH PASS   CLOUDY    45  39  81 SW16      30.85F THUNDER
SALIDA         CLOUDY    60  54  79 S8        30.53R
SUNLIGHT       TSTM      59  41  51 E8G31     30.66R
WILKERSON PASS CLOUDY    45  43  93 W6        30.71S
$$

COZ069>075-290600-
...SAN LUIS VALLEY/SANGRE DE CRISTO MOUNTAINS...

CITY           SKY/WX    TMP DP  RH WIND       PRES   REMARKS
ALAMOSA        CLOUDY    60  48  64 NE9       30.46R
LA VETA PASS   CLOUDY    48  41  76 MISG      30.63R
SAGUACHE       CLOUDY    57  52  82 W6        30.52S
$$

COZ035-036-038>040-290600-
...NORTHERN COLORADO FRONT RANGE...

CITY           SKY/WX    TMP DP  RH WIND       PRES   REMARKS
DENVER INTL AP MOCLDY    65  54  67 S17       30.22F
DMNS CITY PARK   N/A     67  51  57 SE12      30.23S
AURORA         MOCLDY    64  53  67 S9        30.25F
FRONT RANGE AP NOT AVBL
ERIE MUNI ARPT PTCLDY    66  54  65 CALM      30.21R
BOULDER MUN AP PTCLDY    68  50  52 CALM      30.22R
CENTENNIAL     MOCLDY    64  53  67 S14       30.26F
BROOMFIELD     NOT AVBL
FORT COLLINS   MOCLDY    68  55  64 S6        30.22R
LONGMONT       MOCLDY    66  54  66 W5        30.22S
$$

COZ041-046-047-076>085-087-088-290600-
...PIKES PEAK/PALMER DIVIDE AND SOUTHERN FOOTHILLS...

CITY           SKY/WX    TMP DP  RH WIND       PRES   REMARKS
COLO. SPRINGS  CLOUDY    64  52  64 SW3       30.34F
A. F. ACADEMY  CLOUDY    61  54  76 SE6       30.34F
ELLICOTT       CLOUDY   N/A N/A N/A NW6       30.34R
FALCON         CLOUDY    59  52  76 W8        30.38F
FORT CARSON    CLOUDY    64  55  71 SW8       30.30F
LIMON          CLOUDY    60  57  89 S5        30.25S
MONUMENT HILL  CLOUDY    57  50  77 S10         N/A
TRINIDAD       CLOUDY    71  49  45 NW10      30.29R
$$

COZ042>045-048>051-090-091-290600-
...NORTHEAST COLORADO...

CITY           SKY/WX    TMP DP  RH WIND       PRES   REMARKS
GREELEY ARPT   PTCLDY    70  57  64 W3        30.19S
AKRON          PTCLDY    69  53  56 SW10      30.19R
BURLINGTON     PTCLDY    69  49  48 E8        30.16R
WRAY           CLEAR     70  54  55 CALM      30.12R
STERLING       PTCLDY    66  52  59 SW6       30.13R
HOLYOKE        CLEAR     70  55  60 SE3       30.12S
FORT MORGAN    PTCLDY    63   3   9 SW7       30.19R
$$

COZ086-089-092>099-290600-
...SOUTHEAST COLORADO...

CITY           SKY/WX    TMP DP  RH WIND       PRES   REMARKS
PUEBLO         LGT RAIN  67  60  78 E13       30.28R
LA JUNTA       RAIN      66  60  81 N32G52    30.26R
LAMAR          CLOUDY    72  62  71 NW3       30.10R
SPRINGFIELD      N/A     71  44  37 CALM      30.15R
$$


USA.gov is the U.S. government's official web portal to all federal, state and local government web resources and services.